Total_Precipitation_Accumulation
0.07 0.16 0.33 0.65 1.61 1.92 1.57 0.85 0.58 0.46 0.45 0.55 0.53 0.51 0.69 0.97 1.26 1.77 1.21 0.59 0.32 0.30 0.37 0.51 0.72 0.79 0.74 0.69 0.73 0.81 0.87 1.03 1.21 1.47 1.69 1.62 1.56 1.56 1.56 1.52 1.59 1.62 1.59 1.48 1.38 1.35 1.23 1.11 1.00
0.12 0.24 0.45 0.89 1.83 2.20 1.68 0.84 0.54 0.39 0.44 0.56 0.65 0.61 0.57 0.65 0.50 0.55 0.77 0.78 0.41 0.32 0.36 0.44 0.59 0.70 0.71 0.71 0.75 0.85 0.95 1.09 1.22 1.30 1.45 1.50 1.51 1.51 1.54 1.52 1.47 1.46 1.40 1.31 1.24 1.14 1.02 0.96 0.85
0.17 0.27 0.52 1.00 1.30 1.41 1.20 0.70 0.47 0.43 0.45 0.61 0.68 0.52 0.52 0.71 0.54 0.55 0.64 0.61 0.41 0.32 0.37 0.47 0.50 0.60 0.69 0.71 0.77 0.82 0.96 1.12 1.16 1.17 1.26 1.39 1.44 1.46 1.53 1.52 1.45 1.41 1.35 1.25 1.12 1.01 0.92 0.86 0.78
0.17 0.27 0.49 0.69 0.66 0.58 0.52 0.44 0.42 0.45 0.50 0.51 0.59 0.59 0.52 0.64 0.55 0.55 0.58 0.51 0.39 0.32 0.32 0.46 0.50 0.52 0.59 0.67 0.72 0.71 0.81 0.97 1.04 1.11 1.19 1.29 1.34 1.35 1.42 1.38 1.34 1.31 1.25 1.11 1.06 0.97 0.87 0.77 0.70
0.16 0.30 0.53 0.52 0.39 0.39 0.42 0.41 0.46 0.53 0.54 0.64 0.75 0.79 0.83 0.74 0.60 0.69 0.79 0.67 0.49 0.39 0.36 0.46 0.53 0.54 0.56 0.61 0.64 0.69 0.73 0.85 0.95 1.10 1.21 1.25 1.23 1.27 1.29 1.26 1.22 1.19 1.13 1.02 0.99 0.92 0.84 0.80 0.77
0.19 0.34 0.37 0.34 0.30 0.32 0.39 0.40 0.43 0.51 0.59 0.81 0.86 0.79 0.92 0.88 0.72 0.77 0.83 0.99 0.80 0.49 0.40 0.42 0.54 0.57 0.56 0.62 0.67 0.71 0.77 0.88 0.97 0.99 1.05 1.07 1.03 1.07 1.07 1.12 1.13 1.09 1.02 0.95 0.93 0.84 0.82 0.80 0.79
0.19 0.34 0.28 0.24 0.22 0.25 0.27 0.37 0.48 0.53 0.64 0.78 0.70 0.69 0.95 1.11 0.91 0.86 0.87 0.93 0.81 0.56 0.52 0.49 0.48 0.49 0.55 0.72 0.81 0.81 0.80 0.88 0.96 0.92 0.92 0.96 1.02 1.03 1.02 1.05 1.06 1.01 0.94 0.89 0.86 0.71 0.67 0.65 0.70
0.11 0.17 0.18 0.18 0.16 0.20 0.19 0.24 0.40 0.55 0.62 0.60 0.63 0.84 1.20 1.14 0.78 0.79 0.87 0.91 0.83 0.73 0.68 0.69 0.65 0.59 0.59 0.70 0.82 0.88 0.86 0.90 0.92 0.97 0.98 1.04 1.11 1.09 1.05 0.93 0.95 0.95 0.90 0.90 0.86 0.75 0.70 0.70 0.78
0.06 0.10 0.13 0.12 0.10 0.16 0.17 0.23 0.33 0.48 0.52 0.59 0.77 0.85 0.92 0.78 0.63 0.80 0.98 1.14 1.20 1.02 0.91 0.87 0.74 0.66 0.68 0.66 0.73 0.84 0.91 0.94 1.02 1.11 1.14 1.29 1.47 1.40 1.41 1.21 1.26 1.21 1.13 1.12 1.12 1.04 0.93 0.87 0.86
0.06 0.08 0.08 0.06 0.07 0.13 0.14 0.23 0.38 0.56 0.67 0.89 1.20 1.24 0.98 0.83 0.77 0.88 1.14 1.28 1.54 1.30 1.00 0.94 0.80 0.76 0.73 0.66 0.79 1.00 0.97 1.04 1.19 1.36 1.45 1.74 1.94 1.93 1.56 1.72 1.82 1.72 1.69 1.58 1.56 1.69 1.43 1.13 1.09
0.03 0.04 0.02 0.04 0.04 0.06 0.12 0.19 0.29 0.47 0.84 1.32 1.39 1.20 0.98 1.06 1.09 1.09 1.39 1.49 1.45 1.29 1.28 1.21 1.03 1.00 1.00 1.07 0.99 1.14 1.31 1.48 1.47 1.44 1.66 2.05 1.92 1.77 1.67 1.82 2.13 2.23 2.24 2.13 2.11 2.21 1.88 1.76 1.94
0.02 0.01 0.01 0.03 0.04 0.06 0.07 0.10 0.21 0.44 0.91 1.06 1.02 0.96 0.94 1.14 1.19 1.29 1.61 1.68 1.71 1.58 1.82 1.90 1.59 1.57 1.49 1.35 1.29 1.26 1.34 1.52 1.68 1.89 1.99 2.15 2.27 2.21 2.08 2.14 2.30 2.40 2.52 2.89 2.75 2.66 2.45 2.34 2.19
0.03 0.02 0.01 0.02 0.05 0.08 0.06 0.12 0.29 0.62 0.82 0.70 0.60 0.83 0.91 1.24 1.56 1.75 2.00 1.86 2.11 2.22 2.44 2.62 2.21 2.15 2.05 2.06 2.01 1.74 1.82 1.94 2.06 2.24 2.42 2.44 2.63 2.68 2.63 2.53 2.45 2.26 2.33 2.67 2.92 2.80 2.80 2.69 2.52
0.04 0.03 0.02 0.03 0.05 0.06 0.11 0.22 0.40 0.68 0.63 0.57 0.72 1.13 1.34 1.32 1.60 1.98 2.14 2.23 2.58 2.75 2.87 3.01 2.92 2.97 2.86 2.62 2.65 2.64 2.29 2.37 2.37 2.43 2.44 2.55 2.76 3.08 3.19 3.05 2.88 2.51 2.41 2.46 2.74 2.82 3.02 2.95 2.76
0.05 0.06 0.09 0.09 0.09 0.09 0.15 0.45 0.57 0.69 0.58 0.61 0.84 1.20 1.53 1.46 1.61 1.90 2.11 2.61 3.32 3.66 3.55 3.60 3.58 3.84 3.75 3.34 3.03 2.76 2.58 2.55 2.72 2.77 2.74 2.76 2.96 3.27 3.24 3.05 2.70 2.41 2.38 2.54 2.54 2.55 2.83 2.66 2.52
0.06 0.11 0.23 0.21 0.15 0.14 0.23 0.75 0.83 0.72 0.86 0.93 1.11 1.28 1.55 1.59 1.63 1.86 2.34 3.12 3.97 4.50 4.42 4.24 3.82 4.19 4.22 3.91 3.68 3.33 3.08 3.13 3.11 2.83 2.86 2.76 2.89 2.82 2.90 2.60 2.27 2.30 2.44 2.56 2.73 2.61 2.68 2.73 2.81
0.11 0.16 0.22 0.26 0.19 0.16 0.28 0.91 0.92 0.68 0.96 1.21 1.12 1.26 1.47 1.65 1.79 1.91 2.47 3.32 4.16 4.94 5.15 5.12 5.01 4.76 4.50 4.32 4.16 3.95 3.79 3.47 3.11 2.97 2.98 2.67 2.35 2.16 2.34 2.25 2.20 2.20 2.38 2.43 2.27 2.63 2.84 2.84 2.86
0.14 0.17 0.21 0.28 0.22 0.20 0.34 0.69 0.77 0.79 0.95 1.13 1.11 1.13 1.23 1.50 1.93 2.03 2.35 3.09 4.02 4.90 5.44 5.62 5.68 5.34 4.84 4.39 4.04 3.97 3.74 3.44 3.17 2.97 2.91 2.50 2.23 1.97 2.22 2.19 2.13 2.13 2.32 2.45 2.57 2.86 2.98 2.67 2.61
0.11 0.14 0.23 0.28 0.22 0.24 0.41 0.59 0.72 0.83 1.06 1.19 1.22 1.17 1.21 1.51 1.97 2.14 2.45 2.93 3.74 4.47 5.16 5.29 5.59 5.08 4.45 3.94 3.57 3.46 3.27 2.95 2.83 2.71 2.61 2.46 2.21 2.10 2.35 2.21 2.26 2.10 2.18 2.21 2.32 2.57 2.69 2.34 2.43
0.11 0.16 0.24 0.26 0.18 0.22 0.43 0.71 0.87 0.95 0.94 1.00 1.05 1.11 1.22 1.58 2.04 2.38 2.91 3.30 3.33 3.87 4.57 4.62 4.35 4.14 3.71 3.34 3.19 3.02 2.97 2.64 2.45 2.31 2.36 2.15 2.01 2.03 2.07 2.23 2.09 2.04 2.17 2.17 2.23 2.43 2.43 2.14 2.33
0.14 0.17 0.21 0.20 0.18 0.27 0.49 0.90 1.18 1.09 0.82 0.74 0.80 0.90 1.03 1.38 1.89 2.31 2.73 3.17 3.14 3.52 3.61 3.24 3.09 3.19 3.15 2.99 2.90 2.76 2.76 2.57 2.30 2.13 2.13 1.96 1.76 1.79 1.83 1.86 1.93 2.04 1.84 1.99 2.17 2.30 2.39 2.27 2.20
0.11 0.10 0.09 0.10 0.17 0.34 0.49 1.09 1.49 1.26 0.94 0.77 0.80 0.98 1.04 1.15 1.35 1.63 1.97 2.39 2.59 2.68 2.60 2.57 2.55 2.61 2.81 2.82 2.62 2.44 2.17 2.08 2.02 1.90 1.94 1.92 1.66 1.60 1.63 1.65 1.82 1.90 1.84 2.08 1.81 1.93 2.20 2.41 2.22
0.07 0.05 0.06 0.12 0.17 0.33 0.56 0.92 1.34 1.32 1.25 1.06 0.93 0.98 0.93 0.97 1.04 1.18 1.27 1.49 1.77 2.02 2.09 2.08 2.36 2.47 2.50 2.50 2.47 2.51 2.25 2.06 2.01 2.11 2.31 2.22 1.88 1.56 1.42 1.53 1.69 1.79 1.85 1.94 1.88 1.99 1.96 2.04 2.10
0.05 0.06 0.14 0.29 0.43 0.77 0.76 0.82 1.20 1.16 1.08 1.06 0.92 0.78 0.73 0.77 0.82 0.99 1.03 1.07 1.20 1.35 1.48 1.60 1.88 2.11 2.19 2.15 2.17 2.25 2.28 2.25 2.06 2.00 2.06 1.99 1.82 1.62 1.45 1.49 1.69 1.77 1.81 1.83 1.89 1.90 1.82 1.91 2.02
0.06 0.10 0.36 0.76 1.09 1.25 0.82 0.78 0.99 0.87 0.87 0.95 0.76 0.52 0.49 0.59 0.64 0.82 0.81 0.85 0.95 0.99 1.09 1.28 1.49 1.67 1.79 1.87 1.95 2.03 2.23 2.20 1.97 1.76 1.80 1.78 1.61 1.53 1.52 1.49 1.75 1.84 1.82 1.79 1.88 1.86 1.85 1.97 2.05
0.07 0.08 0.23 0.40 0.56 0.77 0.81 1.16 1.09 0.71 0.67 0.60 0.45 0.34 0.32 0.48 0.57 0.62 0.57 0.59 0.74 0.80 0.88 1.04 1.18 1.28 1.39 1.61 1.85 1.85 2.00 1.87 1.74 1.86 1.76 1.64 1.43 1.46 1.67 1.77 1.79 1.77 1.79 1.81 2.05 1.90 1.92 2.00 2.03
0.06 0.05 0.08 0.12 0.18 0.48 0.90 1.27 1.06 0.65 0.58 0.48 0.34 0.27 0.31 0.39 0.53 0.51 0.45 0.46 0.50 0.55 0.63 0.81 1.08 1.18 1.22 1.31 1.53 1.65 1.65 1.68 1.76 1.94 1.89 1.72 1.62 1.49 1.67 1.82 1.91 1.83 1.79 1.89 2.11 2.07 2.11 2.22 2.12
0.07 0.06 0.07 0.09 0.18 0.38 0.77 1.16 1.27 1.01 0.73 0.51 0.39 0.37 0.45 0.47 0.60 0.63 0.47 0.43 0.46 0.46 0.56 0.66 0.84 1.08 1.24 1.22 1.23 1.28 1.53 1.60 1.72 1.81 1.75 1.73 1.66 1.64 1.70 1.67 1.71 1.71 1.69 1.81 2.12 2.13 2.17 2.34 2.28
0.08 0.09 0.09 0.11 0.15 0.26 0.60 0.87 0.81 0.82 0.64 0.50 0.50 0.59 0.47 0.46 0.54 0.60 0.43 0.38 0.41 0.44 0.51 0.64 0.78 1.06 1.25 1.17 1.20 1.31 1.47 1.56 1.62 1.78 1.77 1.71 1.69 1.72 1.68 1.63 1.66 1.65 1.56 1.63 1.81 1.92 2.10 2.23 2.30
0.10 0.11 0.11 0.15 0.17 0.18 0.31 0.55 0.47 0.55 0.55 0.64 0.67 0.64 0.57 0.55 0.56 0.59 0.51 0.56 0.57 0.58 0.62 0.75 0.86 1.03 1.14 1.16 1.24 1.30 1.40 1.48 1.53 1.59 1.67 1.74 1.72 1.78 1.75 1.71 1.68 1.56 1.55 1.63 1.73 1.86 2.03 2.17 2.28